User: anonymous   Login
Location: Grandview
(34.8900°N, 117.1058°W)
Time: 20:17:30
(UTC-08:00)
Language:

STRAND 1 - Orbit

View from above orbital plane
View from above orbital plane
View from above satellite
View from above satellite

Ground track
Ground track

The orbit data is extracted from the following two-line orbital elements,

1 39090U 13009E   17321.56173685  .00000083  00000-0  44391-4 0  9995
2 39090  98.5378 165.4567 0008744 199.3781 160.7073 14.34995945247479
Epoch (UTC): 17 November 2017 13:28:54
Eccentricity: 0.0008744
inclination: 98.5378°
perigee height: 769 km
apogee height: 781 km
right ascension of ascending node: 165.4567°
argument of perigee: 199.3781°
revolutions per day: 14.34995945
mean anomaly at epoch: 160.7073°
orbit number at epoch: 24747

The dashed part of the orbit path shows where the satellite is in the earth's shadow,  

DLR